Previsão horária em Juquitiba

Hoje, 24 Junho, Quinta-feira

Tempo Temperatura Precipitação Vento Pressão Humidade
00:00 +14°C° 0 mm 1 m/s 703 mmHg 91%
01:00 +13°C° 0 mm 1 m/s 702 mmHg 93%
02:00 +13°C° 0 mm 1 m/s 702 mmHg 94%
03:00 +12°C° 0 mm 1 m/s 701 mmHg 95%
04:00 +12°C° 0 mm 1 m/s 701 mmHg 96%
05:00 +12°C° 0 mm 1 m/s 700 mmHg 96%
06:00 +11°C° 0 mm 1 m/s 700 mmHg 97%
07:00 +13°C° 0 mm 1 m/s 701 mmHg 90%
08:00 +14°C° 0 mm 1 m/s 701 mmHg 83%
09:00 +16°C° 0 mm 1 m/s 702 mmHg 76%
10:00 +19°C° 0 mm 1 m/s 702 mmHg 66%
11:00 +22°C° 0 mm 1 m/s 702 mmHg 57%
12:00 +24°C° 0 mm 1 m/s 702 mmHg 48%
13:00 +24°C° 0 mm 1 m/s 702 mmHg 49%
14:00 +24°C° 0 mm 1 m/s 701 mmHg 49%
15:00 +24°C° 0 mm 2 m/s 700 mmHg 50%
16:00 +22°C° 0 mm 1 m/s 700 mmHg 58%
17:00 +20°C° 0 mm 1 m/s 700 mmHg 67%
18:00 +18°C° 0 mm 1 m/s 700 mmHg 75%
19:00 +18°C° 0 mm 1 m/s 700 mmHg 73%
20:00 +18°C° 0 mm 1 m/s 700 mmHg 71%
21:00 +17°C° 0 mm 2 m/s 700 mmHg 69%
22:00 +17°C° 0 mm 2 m/s 700 mmHg 68%
23:00 +17°C° 0 mm 2 m/s 700 mmHg 67%

Amanhã, 25 Junho, Sexta-feira

Tempo Temperatura Precipitação Vento Pressão Humidade
00:00 +18°C° 0 mm 2 m/s 700 mmHg 66%
01:00 +17°C° 0 mm 2 m/s 699 mmHg 66%
02:00 +17°C° 0 mm 2 m/s 699 mmHg 67%
03:00 +17°C° 0 mm 2 m/s 699 mmHg 68%
04:00 +18°C° 0 mm 1 m/s 699 mmHg 69%
05:00 +16°C° 0 mm 1 m/s 699 mmHg 69%
06:00 +16°C° 0 mm 1 m/s 699 mmHg 70%
07:00 +19°C° 0 mm 1 m/s 700 mmHg 65%
08:00 +21°C° 0 mm 1 m/s 701 mmHg 60%
09:00 +21°C° 0 mm 0 m/s 702 mmHg 55%
10:00 +25°C° 0 mm 1 m/s 702 mmHg 50%
11:00 +26°C° 0 mm 1 m/s 702 mmHg 46%
12:00 +28°C° 0 mm 1 m/s 702 mmHg 41%
13:00 +28°C° 0 mm 1 m/s 702 mmHg 43%
14:00 +27°C° 0 mm 1 m/s 701 mmHg 45%
15:00 +27°C° 0 mm 1 m/s 701 mmHg 48%
16:00 +24°C° 0 mm 1 m/s 701 mmHg 61%
17:00 +21°C° 0 mm 1 m/s 701 mmHg 75%
18:00 +17°C° 0 mm 0 m/s 701 mmHg 89%
19:00 +16°C° 0 mm 0 m/s 701 mmHg 90%
20:00 +16°C° 0 mm 0 m/s 701 mmHg 90%
21:00 +15°C° 0 mm 0 m/s 701 mmHg 91%
22:00 +15°C° 0 mm 0 m/s 701 mmHg 90%
23:00 +15°C° 0 mm 0 m/s 701 mmHg 88%

Depois de amanhã, 26 Junho, Sábado

Tempo Temperatura Precipitação Vento Pressão Humidade
00:00 +16°C° 0 mm 1 m/s 701 mmHg 87%
01:00 +15°C° 0 mm 1 m/s 701 mmHg 86%
02:00 +15°C° 0 mm 1 m/s 700 mmHg 86%
03:00 +15°C° 0 mm 1 m/s 700 mmHg 85%
04:00 +15°C° 0 mm 1 m/s 700 mmHg 86%
05:00 +15°C° 0 mm 1 m/s 700 mmHg 88%
06:00 +15°C° 0 mm 1 m/s 701 mmHg 89%
07:00 +16°C° 0 mm 1 m/s 701 mmHg 81%
08:00 +19°C° 0 mm 1 m/s 702 mmHg 73%
09:00 +21°C° 0 mm 1 m/s 702 mmHg 65%
10:00 +23°C° 0 mm 1 m/s 702 mmHg 58%
11:00 +25°C° 0 mm 1 m/s 702 mmHg 51%
12:00 +27°C° 0 mm 2 m/s 702 mmHg 43%
13:00 +27°C° 0 mm 1 m/s 701 mmHg 45%
14:00 +27°C° 0 mm 1 m/s 701 mmHg 47%
15:00 +27°C° 0 mm 1 m/s 700 mmHg 48%
16:00 +24°C° 0 mm 1 m/s 700 mmHg 60%
17:00 +22°C° 0 mm 1 m/s 700 mmHg 72%
18:00 +19°C° 0 mm 1 m/s 700 mmHg 84%
19:00 +19°C° 0 mm 1 m/s 700 mmHg 79%
20:00 +19°C° 0 mm 1 m/s 700 mmHg 75%
21:00 +20°C° 0 mm 1 m/s 700 mmHg 70%
22:00 +19°C° 0 mm 1 m/s 700 mmHg 68%
23:00 +19°C° 0 mm 1 m/s 700 mmHg 67%

27 Junho, Domingo

Tempo Temperatura Precipitação Vento Pressão Humidade
00:00 +18°C° 0 mm 2 m/s 700 mmHg 66%
01:00 +18°C° 0 mm 2 m/s 700 mmHg 64%
02:00 +18°C° 0 mm 2 m/s 700 mmHg 62%
03:00 +18°C° 0 mm 2 m/s 699 mmHg 60%
04:00 +18°C° 0 mm 2 m/s 700 mmHg 60%
05:00 +18°C° 0 mm 2 m/s 700 mmHg 61%
06:00 +18°C° 0 mm 2 m/s 700 mmHg 62%
07:00 +19°C° 0 mm 3 m/s 700 mmHg 58%
08:00 +21°C° 0 mm 3 m/s 700 mmHg 55%
09:00 +22°C° 0 mm 3 m/s 701 mmHg 52%
10:00 +25°C° 0 mm 3 m/s 701 mmHg 46%
11:00 +27°C° 0 mm 3 m/s 701 mmHg 40%
12:00 +28°C° 0 mm 3 m/s 701 mmHg 35%
13:00 +29°C° 0 mm 3 m/s 700 mmHg 35%
14:00 +29°C° 0 mm 3 m/s 700 mmHg 35%
15:00 +29°C° 0 mm 3 m/s 700 mmHg 36%
16:00 +26°C° 0 mm 2 m/s 700 mmHg 42%
17:00 +24°C° 0 mm 2 m/s 699 mmHg 49%
18:00 +20°C° 0 mm 2 m/s 699 mmHg 55%
19:00 +20°C° 0 mm 2 m/s 700 mmHg 53%
20:00 +20°C° 0 mm 2 m/s 700 mmHg 52%
21:00 +19°C° 0 mm 2 m/s 700 mmHg 51%
22:00 +19°C° 0 mm 2 m/s 700 mmHg 54%
23:00 +19°C° 0 mm 1 m/s 701 mmHg 58%

28 Junho, Segunda-feira

Tempo Temperatura Precipitação Vento Pressão Humidade
00:00 +18°C° 0 mm 1 m/s 701 mmHg 61%
01:00 +16°C° 0 mm 1 m/s 701 mmHg 72%
02:00 +16°C° 0 mm 1 m/s 701 mmHg 84%
03:00 +15°C° 0 mm 1 m/s 701 mmHg 95%
04:00 +15°C° 0 mm 1 m/s 702 mmHg 95%
05:00 +16°C° 0 mm 1 m/s 702 mmHg 94%
06:00 +16°C° 0 mm 1 m/s 702 mmHg 93%
07:00 +16°C° 0.1 mm 1 m/s 703 mmHg 91%
08:00 +16°C° 0.1 mm 1 m/s 703 mmHg 90%
09:00 +18°C° 0.1 mm 1 m/s 704 mmHg 88%
10:00 +18°C° 0.1 mm 1 m/s 704 mmHg 85%
11:00 +19°C° 0.1 mm 1 m/s 704 mmHg 83%
12:00 +20°C° 0.1 mm 1 m/s 704 mmHg 80%
13:00 +18°C° 0.1 mm 2 m/s 703 mmHg 83%
14:00 +18°C° 0.1 mm 2 m/s 703 mmHg 85%
15:00 +17°C° 0.1 mm 2 m/s 703 mmHg 88%
16:00 +16°C° 0.2 mm 2 m/s 703 mmHg 91%
17:00 +16°C° 0.2 mm 2 m/s 703 mmHg 94%
18:00 +15°C° 0.2 mm 2 m/s 704 mmHg 97%
19:00 +15°C° 0.2 mm 2 m/s 704 mmHg 97%
20:00 +14°C° 0.2 mm 2 m/s 704 mmHg 97%
21:00 +14°C° 0.2 mm 2 m/s 705 mmHg 97%
22:00 +14°C° 0.2 mm 2 m/s 705 mmHg 97%
23:00 +14°C° 0.2 mm 2 m/s 705 mmHg 97%

29 Junho, Terça-feira

Tempo Temperatura Precipitação Vento Pressão Humidade
00:00 +14°C° 0.2 mm 2 m/s 705 mmHg 96%
01:00 +14°C° 0.2 mm 2 m/s 705 mmHg 97%
02:00 +14°C° 0.2 mm 2 m/s 704 mmHg 97%
03:00 +14°C° 0.2 mm 2 m/s 704 mmHg 97%
04:00 +14°C° 0.2 mm 2 m/s 704 mmHg 97%
05:00 +13°C° 0.2 mm 2 m/s 704 mmHg 97%
06:00 +13°C° 0.2 mm 2 m/s 704 mmHg 97%
07:00 +13°C° 0.1 mm 2 m/s 705 mmHg 97%
08:00 +13°C° 0.1 mm 2 m/s 705 mmHg 97%
09:00 +13°C° 0.1 mm 2 m/s 706 mmHg 97%
10:00 +13°C° 0.1 mm 2 m/s 706 mmHg 97%
11:00 +14°C° 0.1 mm 2 m/s 706 mmHg 97%
12:00 +14°C° 0.1 mm 2 m/s 705 mmHg 96%
13:00 +14°C° 0.1 mm 2 m/s 705 mmHg 96%
14:00 +13°C° 0.1 mm 2 m/s 705 mmHg 97%
15:00 +13°C° 0.1 mm 2 m/s 704 mmHg 97%
16:00 +13°C° 0.1 mm 2 m/s 704 mmHg 97%
17:00 +13°C° 0.1 mm 2 m/s 705 mmHg 97%
18:00 +12°C° 0.1 mm 2 m/s 705 mmHg 97%
19:00 +12°C° 0.1 mm 2 m/s 705 mmHg 97%
20:00 +12°C° 0.1 mm 2 m/s 705 mmHg 97%
21:00 +11°C° 0.1 mm 3 m/s 706 mmHg 97%
22:00 +11°C° 0.2 mm 3 m/s 705 mmHg 97%
23:00 +11°C° 0.2 mm 3 m/s 705 mmHg 97%
Mostrar mais

Necessitamos do seu Consentimento

A Meteoprog e os seus Fornecedores de Serviços podem armazenar e aceder a dados pessoais como cookies, identificadores do dispositivo ou outras tecnologias semelhantes existentes no seu dispositivo e processar estes dados para personalizar conteúdos e anúncios, assim como funcionalidades nas redes sociais e análise de tráfego.

  • Armazenar e/ou aceder a informações no seu dispositivo

    Os cookies, identificadores do dispositivo ou outras informações podem ser armazenados ou acedidos no seu dispositivo, para os fins acima indicados.

  • Anúncios e conteúdos personalizados, medição de anúncios e conteúdos, dados sobre o público-alvo e desenvolvimento de produtos

    Os anúncios e os conteúdos podem ser personalizados com base num perfil. Podem ser adicionados dados adicionais para uma maior personalização dos anúncios e dos conteúdos. A eficácia dos anúncios e dos conteúdos pode ser medida. Podem ser obtidas informações sobre o público que visualizou os anúncios e os conteúdos. Estes dados podem ser usados para desenvolver ou melhorar sistemas, softwares ou a experiência do utilizador.

Ao clicar em "Eu concordo”, permitirá o uso de cookies, identificadores do dispositivo e web beacons mencionados ou outras tecnologias semelhantes. As configurações do navegador do seu dispositivo podem ser alteradas.

Para certos fins, podem ser invocados interesses legítimos ao invés de consentimento. Pode ler mais informação sobre este assunto na nossa Política de Privacidade e Cookies.